ヘリン-ローマン-アルー第2彗星

132P/Helin-Roman-Alu 2 (1997)

English version
Home page
Updated on September 29, 2004

---------------------------------------------------------------------

・ プロフィール

符号 132P/1997 N2
検出日 1997年7月13日
検出光度 19.6等
検出者 C. W. Hergenrother (Mt. Hopkins)

・ 軌道要素

   The following improved orbital elements by Kenji Muraoka, are 
  from 114 observations 1989 Oct. 26 to 1998 Mar. 9, perturbations 
  by 9 Plantes, Moon and 5 minor planets were taken into account. 
   The mean residual is +/- 0.64 arc seconds.

      Epoch  =  1997 Nov.  8.0  TT       JDT = 2450760.5
          T  =  1997 Nov. 10.09264       +/- 0.00023 (m.e.) TT
       Peri. =  220.95870                +/- 0.00020
       Node  =  178.47974                +/- 0.00030   (2000.0)
       Incl. =    5.77564                +/- 0.00003
          q  =    1.9100178              +/- 0.0000031 AU
          e  =    0.5316521              +/- 0.0000007
          a  =    4.0782030              +/- 0.0000023 AU
          n  =    0.11967428             +/- 0.00000010
          P  =    8.236                  +/- 0.0000069  years

・ 星図

・ 1997年 6月 1日〜1998年 7月 6日

・ 光度変化

        m1 = 7.2 + 5 logΔ + 31 log r(t - 26)

---------------------------------------------------------------------

軌道要素は村岡健治氏の計算によるものです。
星図は StellaNavigator Ver.2.0 for Windows (アストロアーツ 編著 / アスキー出版局刊) で作成したものです。
光度グラフはComet for Windowsで作成したものです。

---------------------------------------------------------------------

Copyright(C) Seiichi Yoshida (comet@aerith.net). All rights reserved.